Kill Devil Hills, NC

6:45 AM EST on November 25, 2017 (GMT -0500)
First Flight

Weather History for KFFA - May, 2014

Change the Weather History Date:

Saturday, May 3, 2014

  Actual Average (KMQI) Record (KMQI)
Temperature  
Mean Temperature 64 °F -  
Max Temperature 71 °F 69 °F 85 °F (1968)
Min Temperature 58 °F 56 °F 43 °F (1980)
Growing Degree Days 14 (Base 50)    
Moisture  
Dew Point 54 °F    
Average Humidity 69    
Maximum Humidity 95    
Minimum Humidity 40    
Precipitation  
Precipitation 0.00 in - - ()
Sea Level Pressure  
Sea Level Pressure 29.87 in    
Wind  
Wind Speed 3 mph (South)    
Max Wind Speed 9 mph    
Max Gust Speed 16 mph    
Visibility 10 miles    
Events Rain    
Averages and records for this station are not official NWS values.
T = Trace of Precipitation, MM = Missing Value Source: NWS Daily Summary

Daily Weather History Graph

Daily Weather History Graph

Search for Another Location

Airport or City:

Trip Planner

Search our weather history database for the weather conditions in past years. The results will help you decide how hot, cold, wet, or windy it might be!

Date:

Astronomy

May. 03, 2014 Rise Set
Actual Time 6:07 AM EDT 7:51 PM EDT
Civil Twilight 5:40 AM EDT 8:19 PM EDT
Nautical Twilight 5:07 AM EDT 8:52 PM EDT
Astronomical Twilight 4:31 AM EDT 9:28 PM EDT
Moon 9:37 AM EDT (5/3) 11:55 PM EDT (5/3)
Length of Visible Light 14h 38m
Length of Day
13h 43m
Waxing Crescent, 19% of the Moon is Illuminated
May 3
Waxing Crescent
May 6
First Quarter
May 14
Full
May 21
Last Quarter
May 28
New

Hourly Weather History & Observations

Time (EDT) Temp. Dew Point Humidity Pressure Visibility Wind Dir Wind Speed Gust Speed Precip Events Conditions
12:15 AM 61.5 °F 58.3 °F 89% 29.88 in 10.0 mi Calm Calm - N/A   Clear
12:35 AM 61.9 °F 58.8 °F 90% 29.89 in 10.0 mi SW 4.6 mph - N/A   Clear
12:55 AM 62.1 °F 59.0 °F 90% 29.88 in 10.0 mi SW 4.6 mph - N/A   Clear
1:15 AM 61.9 °F 58.6 °F 89% 29.88 in 10.0 mi Calm Calm - N/A   Clear
1:35 AM 61.5 °F 58.6 °F 90% 29.88 in 10.0 mi SW 3.5 mph - N/A   Clear
1:55 AM 61.0 °F 58.6 °F 92% 29.87 in 10.0 mi Calm Calm - N/A   Clear
2:15 AM 60.8 °F 58.8 °F 93% 29.87 in 10.0 mi Calm Calm - N/A   Clear
2:35 AM 60.6 °F 59.0 °F 94% 29.87 in 10.0 mi Calm Calm - N/A   Scattered Clouds
2:55 AM 60.8 °F 59.0 °F 94% 29.88 in 10.0 mi Calm Calm - N/A   Scattered Clouds
3:15 AM 60.4 °F 59.0 °F 95% 29.87 in 10.0 mi Calm Calm - N/A   Mostly Cloudy
3:35 AM 59.7 °F 57.6 °F 93% 29.87 in 10.0 mi Calm Calm - N/A   Overcast
3:55 AM 59.9 °F 55.8 °F 86% 29.87 in 10.0 mi Calm Calm - N/A   Overcast
4:15 AM 60.4 °F 53.8 °F 79% 29.88 in 10.0 mi Calm Calm - N/A   Overcast
4:35 AM 60.6 °F 53.1 °F 76% 29.88 in 10.0 mi Calm Calm - N/A   Overcast
4:55 AM 60.6 °F 53.4 °F 77% 29.87 in 10.0 mi Calm Calm - N/A Rain Light Rain
5:15 AM 60.6 °F 54.5 °F 80% 29.87 in 10.0 mi Calm Calm - N/A   Overcast
5:35 AM 60.8 °F 54.9 °F 81% 29.87 in 10.0 mi Calm Calm - N/A   Overcast
5:55 AM 60.6 °F 54.3 °F 80% 29.87 in 10.0 mi Calm Calm - N/A   Overcast
6:15 AM 59.5 °F 54.7 °F 84% 29.89 in 10.0 mi Calm Calm - N/A   Overcast
6:35 AM 59.2 °F 55.6 °F 88% 29.89 in 10.0 mi Calm Calm - N/A   Mostly Cloudy
6:55 AM 58.6 °F 56.3 °F 92% 29.89 in 10.0 mi Calm Calm - N/A   Scattered Clouds
7:15 AM 59.0 °F 56.5 °F 91% 29.89 in 7.0 mi Calm Calm - N/A   Clear
7:35 AM 59.2 °F 55.8 °F 88% 29.89 in 10.0 mi Calm Calm - N/A   Clear
7:55 AM 60.8 °F 55.2 °F 82% 29.89 in 10.0 mi Calm Calm - N/A   Clear
8:15 AM 62.1 °F 55.6 °F 79% 29.89 in 10.0 mi Calm Calm - N/A   Clear
8:35 AM 63.3 °F 54.3 °F 72% 29.89 in 10.0 mi NW 3.5 mph - N/A   Clear
8:55 AM 64.2 °F 53.2 °F 67% 29.89 in 10.0 mi Calm Calm - N/A   Clear
9:15 AM 65.1 °F 53.6 °F 66% 29.89 in 10.0 mi West 3.5 mph - N/A   Clear
9:35 AM 65.3 °F 53.4 °F 65% 29.90 in 10.0 mi NNE 4.6 mph - N/A   Clear
9:55 AM 64.8 °F 52.0 °F 63% 29.89 in 10.0 mi Calm Calm - N/A   Scattered Clouds
10:15 AM 65.7 °F 52.0 °F 61% 29.89 in 10.0 mi East 3.5 mph - N/A   Scattered Clouds
10:35 AM 66.7 °F 50.9 °F 57% 29.88 in 10.0 mi ESE 3.5 mph - N/A   Scattered Clouds
10:55 AM 67.5 °F 48.6 °F 51% 29.88 in 10.0 mi ENE 3.5 mph - N/A   Scattered Clouds
11:15 AM 67.3 °F 47.8 °F 50% 29.89 in 10.0 mi Calm Calm - N/A   Mostly Cloudy
11:35 AM 67.8 °F 48.4 °F 50% 29.88 in 10.0 mi East 4.6 mph - N/A   Scattered Clouds
11:55 AM 67.5 °F 46.4 °F 47% 29.88 in 10.0 mi Calm Calm - N/A   Scattered Clouds
12:15 PM 68.2 °F 44.1 °F 42% 29.88 in 10.0 mi Calm Calm - N/A   Clear
12:35 PM 68.4 °F 44.1 °F 41% 29.87 in 10.0 mi SE 4.6 mph - N/A   Scattered Clouds
12:55 PM 69.3 °F 44.8 °F 41% 29.86 in 10.0 mi South 3.5 mph - N/A   Clear
1:15 PM 69.6 °F 45.9 °F 43% 29.87 in 10.0 mi South 4.6 mph - N/A   Clear
1:35 PM 70.3 °F 44.8 °F 40% 29.87 in 10.0 mi SE 3.5 mph - N/A   Clear
1:55 PM 69.4 °F 46.0 °F 43% 29.86 in 10.0 mi ESE 5.8 mph - N/A   Clear
2:15 PM 70.3 °F 47.5 °F 44% 29.85 in 10.0 mi SE 9.2 mph - N/A   Clear
2:35 PM 69.4 °F 48.2 °F 47% 29.84 in 10.0 mi ESE 8.1 mph - N/A   Clear
2:55 PM 69.6 °F 49.1 °F 48% 29.83 in 10.0 mi ESE 4.6 mph - N/A   Clear
3:15 PM 70.0 °F 50.4 °F 50% 29.83 in 10.0 mi SE 8.1 mph - N/A   Clear
3:35 PM 70.0 °F 51.3 °F 51% 29.83 in 10.0 mi ESE 6.9 mph - N/A   Clear
3:55 PM 70.0 °F 52.3 °F 53% 29.83 in 10.0 mi ESE 6.9 mph - N/A   Clear
4:15 PM 70.2 °F 52.5 °F 53% 29.83 in 10.0 mi South 4.6 mph - N/A   Clear
4:35 PM 71.1 °F 51.3 °F 49% 29.83 in 10.0 mi South 5.8 mph - N/A   Clear
4:55 PM 70.5 °F 50.7 °F 49% 29.83 in 10.0 mi SSE 8.1 mph - N/A   Clear
5:15 PM 70.5 °F 52.3 °F 52% 29.83 in 10.0 mi SSE 9.2 mph 16.1 mph N/A   Clear
5:35 PM 70.2 °F 52.7 °F 54% 29.82 in 10.0 mi SSE 6.9 mph - N/A   Clear
5:55 PM 69.8 °F 52.7 °F 54% 29.82 in 10.0 mi SSE 4.6 mph - N/A   Clear
6:15 PM 69.6 °F 52.0 °F 53% 29.82 in 10.0 mi South 4.6 mph - N/A   Clear
6:35 PM 69.1 °F 52.2 °F 55% 29.82 in 10.0 mi South 6.9 mph - N/A   Clear
6:55 PM 68.7 °F 54.3 °F 60% 29.82 in 10.0 mi South 4.6 mph - N/A   Clear
7:15 PM 68.0 °F 56.1 °F 66% 29.82 in 10.0 mi South 8.1 mph - N/A   Clear
7:35 PM 67.3 °F 56.1 °F 67% 29.83 in 10.0 mi South 5.8 mph - N/A   Scattered Clouds
7:55 PM 66.9 °F 56.7 °F 70% 29.84 in 10.0 mi SSW 8.1 mph - N/A   Clear
8:15 PM 66.4 °F 57.0 °F 72% 29.84 in 10.0 mi SSW 5.8 mph - N/A   Clear
8:35 PM 66.0 °F 57.0 °F 73% 29.85 in 10.0 mi SSW 4.6 mph - N/A   Clear
8:55 PM 65.8 °F 57.0 °F 73% 29.85 in 10.0 mi SSW 6.9 mph - N/A   Scattered Clouds
9:15 PM 65.8 °F 56.8 °F 73% 29.86 in 10.0 mi SW 6.9 mph - N/A   Scattered Clouds
9:35 PM 65.5 °F 56.7 °F 73% 29.86 in 10.0 mi SSW 6.9 mph - N/A   Clear
9:55 PM 65.1 °F 56.7 °F 74% 29.87 in 10.0 mi SW 5.8 mph - N/A   Clear
10:15 PM 64.9 °F 56.8 °F 75% 29.88 in 10.0 mi SW 5.8 mph - N/A   Clear
10:35 PM 64.8 °F 56.7 °F 75% 29.88 in 10.0 mi SW 5.8 mph - N/A   Clear
10:55 PM 64.4 °F 56.7 °F 76% 29.88 in 10.0 mi SW 6.9 mph - N/A   Clear
11:15 PM 64.2 °F 56.5 °F 76% 29.88 in 10.0 mi SW 5.8 mph - N/A   Clear
11:35 PM 64.0 °F 56.7 °F 77% 29.88 in 10.0 mi SW 5.8 mph - N/A   Clear
11:55 PM 63.9 °F 56.7 °F 77% 29.88 in 10.0 mi SW 8.1 mph - N/A   Clear